TimeAKST,TemperatureF,Dew PointF,Humidity,Sea Level PressureIn,VisibilityMPH,Wind Direction,Wind SpeedMPH,Gust SpeedMPH,PrecipitationIn,Events,Conditions,WindDirDegrees,DateUTC
12:16 AM,41.0,32.0,70,29.46,10.0,SSE,10.4,-,N/A,,Scattered Clouds,150,2013-12-21 09:16:00
12:36 AM,41.0,32.0,70,29.46,10.0,SSE,9.2,-,N/A,,Mostly Cloudy,150,2013-12-21 09:36:00
12:56 AM,41.0,32.0,70,29.46,10.0,SSE,11.5,-,N/A,,Overcast,150,2013-12-21 09:56:00
1:16 AM,42.8,32.0,66,29.46,10.0,SSE,11.5,-,N/A,,Overcast,160,2013-12-21 10:16:00
1:36 AM,42.8,33.8,70,29.47,10.0,SSE,10.4,-,N/A,,Overcast,160,2013-12-21 10:36:00
1:56 AM,42.8,33.8,70,29.47,10.0,SSE,10.4,-,N/A,,Overcast,160,2013-12-21 10:56:00
2:16 AM,41.0,33.8,76,29.46,10.0,SSE,9.2,-,N/A,,Overcast,150,2013-12-21 11:16:00
2:36 AM,41.0,33.8,76,29.47,10.0,SSE,6.9,-,N/A,,Overcast,150,2013-12-21 11:36:00
2:56 AM,41.0,33.8,76,29.46,10.0,SE,4.6,-,N/A,,Overcast,140,2013-12-21 11:56:00
3:16 AM,39.2,33.8,81,29.45,10.0,ESE,6.9,-,N/A,,Overcast,120,2013-12-21 12:16:00
3:36 AM,39.2,33.8,81,29.45,10.0,ESE,8.1,-,N/A,,Overcast,110,2013-12-21 12:36:00
3:56 AM,39.2,33.8,81,29.45,10.0,ESE,6.9,-,N/A,,Mostly Cloudy,120,2013-12-21 12:56:00
4:16 AM,39.2,32.0,75,29.45,10.0,SSE,4.6,-,N/A,,Mostly Cloudy,150,2013-12-21 13:16:00
4:36 AM,39.2,33.8,81,29.45,10.0,SSE,6.9,-,N/A,,Mostly Cloudy,150,2013-12-21 13:36:00
4:56 AM,39.2,33.8,81,29.45,10.0,SSE,6.9,-,N/A,,Overcast,150,2013-12-21 13:56:00
5:16 AM,39.2,33.8,81,29.44,10.0,SSE,5.8,-,N/A,,Overcast,150,2013-12-21 14:16:00
5:36 AM,39.2,33.8,81,29.44,10.0,SSE,5.8,-,N/A,,Overcast,160,2013-12-21 14:36:00
5:56 AM,39.2,33.8,81,29.44,10.0,South,9.2,-,N/A,,Overcast,170,2013-12-21 14:56:00
6:16 AM,41.0,33.8,76,29.44,10.0,SSE,12.7,-,N/A,,Mostly Cloudy,160,2013-12-21 15:16:00
6:36 AM,41.0,33.8,76,29.45,10.0,South,11.5,-,N/A,,Overcast,170,2013-12-21 15:36:00
6:56 AM,41.0,33.8,76,29.45,10.0,South,9.2,-,N/A,,Overcast,170,2013-12-21 15:56:00
7:16 AM,41.0,33.8,76,29.45,10.0,South,9.2,-,N/A,,Overcast,170,2013-12-21 16:16:00
7:36 AM,41.0,33.8,76,29.45,10.0,South,9.2,-,N/A,,Overcast,170,2013-12-21 16:36:00
7:56 AM,41.0,33.8,76,29.46,10.0,South,9.2,-,N/A,,Overcast,180,2013-12-21 16:56:00
8:16 AM,41.0,33.8,76,29.47,10.0,South,8.1,-,N/A,,Overcast,190,2013-12-21 17:16:00
8:36 AM,39.2,33.8,81,29.47,10.0,South,9.2,-,N/A,,Overcast,190,2013-12-21 17:36:00
8:56 AM,39.2,33.8,81,29.47,10.0,South,5.8,-,N/A,,Overcast,180,2013-12-21 17:56:00
9:16 AM,39.2,33.8,81,29.47,10.0,SSE,5.8,-,N/A,,Overcast,160,2013-12-21 18:16:00
9:36 AM,39.2,33.8,81,29.47,10.0,South,4.6,-,N/A,,Overcast,190,2013-12-21 18:36:00
9:56 AM,39.2,33.8,81,29.48,10.0,South,4.6,-,N/A,,Overcast,180,2013-12-21 18:56:00
10:16 AM,39.2,33.8,81,29.48,10.0,South,8.1,-,N/A,,Overcast,170,2013-12-21 19:16:00
10:36 AM,39.2,33.8,81,29.49,10.0,SSW,5.8,-,N/A,,Overcast,210,2013-12-21 19:36:00
10:56 AM,37.4,32.0,81,29.50,0.5,WSW,10.4,-,N/A,,Overcast,240,2013-12-21 19:56:00
11:16 AM,37.4,32.0,81,29.51,1.0,WSW,12.7,-,N/A,,Overcast,240,2013-12-21 20:16:00
11:36 AM,37.4,30.2,75,29.51,1.0,WSW,12.7,-,N/A,,Overcast,240,2013-12-21 20:36:00
11:56 AM,35.6,30.2,81,29.52,1.5,SW,10.4,-,N/A,,Overcast,230,2013-12-21 20:56:00
12:16 PM,35.6,30.2,81,29.52,0.8,SW,10.4,-,N/A,,Overcast,220,2013-12-21 21:16:00
12:36 PM,35.6,30.2,81,29.52,1.0,SSW,10.4,-,N/A,,Overcast,210,2013-12-21 21:36:00
12:56 PM,35.6,30.2,81,29.52,1.8,SSW,11.5,-,N/A,,Overcast,210,2013-12-21 21:56:00
1:16 PM,35.6,30.2,81,29.53,8.0,South,6.9,-,N/A,,Overcast,190,2013-12-21 22:16:00
1:36 PM,35.6,30.2,81,29.54,10.0,SSW,8.1,-,N/A,,Overcast,200,2013-12-21 22:36:00
1:56 PM,35.6,30.2,81,29.55,1.2,NW,20.7,26.5,N/A,,Overcast,310,2013-12-21 22:56:00
2:16 PM,33.8,28.4,81,29.57,2.5,WNW,16.1,23.0,N/A,,Overcast,290,2013-12-21 23:16:00
2:36 PM,32.0,26.6,80,29.58,2.0,WNW,18.4,24.2,N/A,,Overcast,290,2013-12-21 23:36:00
2:56 PM,32.0,26.6,80,29.60,3.0,West,16.1,-,N/A,,Overcast,280,2013-12-21 23:56:00
3:16 PM,32.0,24.8,75,29.61,5.0,West,17.3,-,N/A,,Overcast,280,2013-12-22 00:16:00
3:36 PM,32.0,24.8,75,29.62,4.0,West,17.3,-,N/A,,Overcast,280,2013-12-22 00:36:00
3:56 PM,30.2,24.8,80,29.63,8.0,West,16.1,21.9,N/A,,Overcast,280,2013-12-22 00:56:00
4:16 PM,30.2,23.0,75,29.63,8.0,WNW,15.0,20.7,N/A,,Overcast,290,2013-12-22 01:16:00
4:36 PM,30.2,21.2,69,29.64,7.0,West,15.0,-,N/A,,Overcast,280,2013-12-22 01:36:00
4:56 PM,30.2,23.0,75,29.65,4.0,WNW,16.1,20.7,N/A,,Overcast,300,2013-12-22 01:56:00
5:16 PM,30.2,23.0,75,29.66,5.0,WNW,12.7,20.7,N/A,,Overcast,290,2013-12-22 02:16:00
5:36 PM,30.2,21.2,69,29.67,3.0,WNW,18.4,-,N/A,,Overcast,290,2013-12-22 02:36:00
5:56 PM,28.4,21.2,74,29.67,6.0,WNW,16.1,21.9,N/A,,Overcast,290,2013-12-22 02:56:00
6:16 PM,28.4,21.2,74,29.68,7.0,WNW,13.8,-,N/A,,Overcast,300,2013-12-22 03:16:00
6:36 PM,28.4,21.2,74,29.69,7.0,WNW,18.4,23.0,N/A,,Overcast,290,2013-12-22 03:36:00
6:56 PM,28.4,21.2,74,29.69,7.0,WNW,16.1,25.3,N/A,,Overcast,290,2013-12-22 03:56:00
7:16 PM,28.4,19.4,69,29.70,6.0,WNW,19.6,23.0,N/A,,Overcast,300,2013-12-22 04:16:00
7:36 PM,28.4,19.4,69,29.71,9.0,WNW,18.4,24.2,N/A,,Overcast,300,2013-12-22 04:36:00
7:56 PM,28.4,19.4,69,29.71,8.0,WNW,18.4,23.0,N/A,,Overcast,290,2013-12-22 04:56:00
8:16 PM,26.6,17.6,69,29.72,10.0,WNW,24.2,29.9,N/A,,Overcast,290,2013-12-22 05:16:00
8:36 PM,26.6,17.6,69,29.72,10.0,West,19.6,24.2,N/A,,Overcast,280,2013-12-22 05:36:00
8:56 PM,26.6,17.6,69,29.73,10.0,West,23.0,27.6,N/A,,Overcast,280,2013-12-22 05:56:00
9:16 PM,26.6,17.6,69,29.74,10.0,WNW,20.7,27.6,N/A,,Overcast,300,2013-12-22 06:16:00
9:36 PM,26.6,17.6,69,29.74,10.0,WNW,19.6,27.6,N/A,,Overcast,290,2013-12-22 06:36:00
9:56 PM,26.6,17.6,69,29.75,10.0,West,18.4,27.6,N/A,,Overcast,280,2013-12-22 06:56:00
10:16 PM,26.6,15.8,64,29.76,10.0,West,21.9,26.5,N/A,,Overcast,280,2013-12-22 07:16:00
10:36 PM,26.6,15.8,64,29.77,10.0,WNW,20.7,24.2,N/A,,Overcast,300,2013-12-22 07:36:00
10:56 PM,24.8,15.8,69,29.77,10.0,WNW,17.3,26.5,N/A,,Overcast,290,2013-12-22 07:56:00
11:16 PM,24.8,14.0,64,29.78,10.0,WNW,24.2,-,N/A,,Overcast,300,2013-12-22 08:16:00
11:36 PM,24.8,15.8,69,29.79,10.0,NW,25.3,-,N/A,,Overcast,310,2013-12-22 08:36:00
11:56 PM,24.8,14.0,64,29.80,10.0,WNW,21.9,29.9,N/A,,Overcast,300,2013-12-22 08:56:00